Regional Weather Roundup
Issued by NWS Wakefield, VA

Home | Current Version | Previous Version | Text Only | Print | Product List | Glossary Off
Versions: 1 2 3 4 5 6 7 8 9 10 11 12 13 14 15 16 17 18 19 20 21 22 23 24 25 26 27 28 29 30 31 32 33 34 35 36 37 38 39 40 41 42 43 44 45 46 47 48 49 50

000
ASUS41 KAKQ 311810
RWRAKQ

REGIONAL WEATHER ROUNDUP
NATIONAL WEATHER SERVICE WAKEFIELD VA
100 PM EST SAT JAN 31 2015

Note: "fair" indicates few or no clouds below 12,000 feet with no
significant weather and/or obstructions to visibility. * = Denotes
station may not report precipitation (e.g., rain,snow,etc.),
thunder or fog.

VAZ042-051-052>054-056-311900-
NORTHERN VIRGINIA

CITY           SKY/WX    TMP DP  RH WIND       PRES   REMARKS
WASH NATIONAL  MOSUNNY   31   2  29 NW14G21   30.32F WCI  21
DULLES         SUNNY     28   7  41 NW13      30.30F WCI  17
FORT BELVOIR   SUNNY     29   4  34 NW9G17    30.32F
QUANTICO       SUNNY     33   5  30 NW10G17   30.33F WCI  25
FREDERICKSBRG* SUNNY     35   3  26 W5        30.30F
STAFFORD*      SUNNY     32   1  27 CALM      30.35F
WARRENTON      SUNNY     35  14  42 W5        30.28F
CULPEPER*      SUNNY     34   3  27 CALM      30.29F
MANASSAS*      SUNNY     28   9  43 N10G21    30.31F WCI  19
LEESBURG*      SUNNY     30  12  47 N9        30.30F
WINCHESTER     SUNNY     32   9  37 NW8       30.26F
FRONT ROYAL*   FAIR      32   9  37 NW5       30.25F
LURAY*         FAIR      36   5  27 SW6       30.24F
$$

VAZ048-049-060>072-079>083-311900-
CENTRAL AND SOUTH CENTRAL VIRGINIA

CITY           SKY/WX    TMP DP  RH WIND       PRES   REMARKS
RICHMOND       MOSUNNY   37   4  25 W6        30.31F
CHESTERFIELD*  FAIR      37   3  23 W7        30.32F
PETERSBURG*    SUNNY     40   2  20 W9        30.32F
HANOVER        SUNNY     35   5  28 W7        30.32F
TAPPAHANNOCK*  SUNNY     34  -6  17 W8        30.31F
QUINTON*       FAIR      34   5  29 W7        30.31F
CHARLOTTSVILLE SUNNY     37   0  21 VRB3      30.26F
GORDONSVILLE*  FAIR      36   1  22 W3        30.27F
ORANGE*        SUNNY     36   5  27 CALM      30.29F
LOUISA*        SUNNY     37   3  23 CALM      30.26F
BUMPASS*       FAIR      33   3  28 CALM      30.29F
FARMVILLE*     SUNNY     43   0  16 SW7       30.29F
CREWE*         FAIR      38  -3  17 SW7       30.30F
FORT PICKETT*  FAIR      39   1  20 W9        30.30F
CHASE CITY*    FAIR      42   8  24 NW7       30.31F
CLARKSVILLE*   FAIR      39   7  26 W5        30.31F
SOUTH HILL*    SUNNY     38   3  23 W5        30.37F
LAWRENCEVILLE* FAIR      39   4  23 NW5       30.31F
EMPORIA*       SUNNY     37   5  25 W7        30.33F
$$

VAZ088>098-311900-
SOUTHEAST VIRGINIA

CITY           SKY/WX    TMP DP  RH WIND       PRES   REMARKS
NORFOLK        SUNNY     33   3  28 NW10G21   30.30F WCI  25
VIRGINIA BEACH MOSUNNY   36   5  27 NW15G23   30.29F
NORFOLK NAVAL  MOSUNNY   37   7  28 W10G20    30.31F
WEST POINT*    SUNNY     38  -3  17 W9G16     30.32F
SALUDA*        FAIR      32   7  35 NW13G18   30.30F WCI  22
NEWPORT NEWS   SUNNY     37   8  30 W14       30.30F
LANGLEY AFB    SUNNY     35   7  30 W15G21    30.30F
FORT EUSTIS    SUNNY     35  11  36 NW13      30.29F
WILLIAMSBURG*    N/A     39  10  30 NW10G16   30.31F
HR EXEC AP*    FAIR      37   9  30 W9        30.33F
FRANKLIN*      SUNNY     37   5  27 W9G16     30.33F
WAKEFIELD      SUNNY     38   3  23 VRB7      30.31F
$$

VAZ020-022-025-037-045-311900-
WEST CENTRAL AND SOUTHWEST VIRGINIA

CITY           SKY/WX    TMP DP  RH WIND       PRES   REMARKS
STAUNTON*      SUNNY     33   1  25 N3        30.25F
WAYNESBORO*    FAIR      35  -1  21 CALM      30.22F
HOT SPRINGS VA SUNNY     29   2  32 W13       30.10F WCI  18
LYNCHBURG      SUNNY     39   1  20 W7        30.28F
DANVILLE       SUNNY     42   8  24 W8        30.33F
SOUTH BOSTON*  FAIR      41  -1  17 W7        30.32F
MARTINSVILLE   SUNNY     45   2  17 SW5       30.32F
ROANOKE        MOSUNNY   43  -3  14 W10       30.28F
BLACKSBURG     SUNNY     33   6  32 W12G20    30.28F WCI  24
DUBLIN*        SUNNY     39   3  22 W9        30.27F
MARION*        SUNNY     36  12  36 W15       30.29F
HILLSVILLE*    SUNNY     36   1  23 NW15      30.23F
RICHLANDS*     FAIR      32  10  39 SW5       30.28F
WISE*          SUNNY     37   9  30 CALM      30.28F
ABINGDON*      SUNNY     38  11  32 W5        30.32F
$$

MDZ021>025-VAZ099-100-311900-
SOUTHERN MARYLAND AND THE DELMARVA PENINSULA

CITY           SKY/WX    TMP DP  RH WIND       PRES   REMARKS
PATUXENT RIVER SUNNY     31   4  31 NW16      30.29F WCI  20
BAY BRIDGE APT   N/A     28   7  40 NW9       30.29F
LEONARDTOWN    SUNNY     32   0  25 NW12G20   30.30F WCI  23
DOVER          SUNNY     27   4  38 W21       30.24F WCI  13
GEORGETOWN     SUNNY     28   3  34 NW9G21    30.24F
EASTON         SUNNY     30   9  40 NW15G21   30.32F WCI  19
CAMBRIDGE      SUNNY     32   9  37 NW14G22   30.28F WCI  22
SALISBURY      SUNNY     32   6  33 NW16      30.25F WCI  21
OCEAN CITY     SUNNY     30   4  33 NW17G28   30.23F WCI  18
WALLOPS ISLAND SUNNY     31   8  38 NW15G28   30.25F WCI  20
ACCOMACK*      SUNNY     32   9  37 NW20G29   30.28F WCI  20
$$

NCZ012>017-030>032-311900-
NORTH CENTRAL AND EASTERN NORTH CAROLINA

CITY           SKY/WX    TMP DP  RH WIND       PRES   REMARKS
ROANOKE RAPIDS FAIR      41   5  22 NW9       30.32F
RALEIGH        MOSUNNY   43   1  17 VRB6      30.34F
ELIZABETH CITY SUNNY     38   8  29 NW13G22   30.31F
AHOSKIE*       SUNNY     38   6  25 NW3       30.32F
EDENTON*       SUNNY     39   8  27 N14G20    30.32F
CURRITUCK*     SUNNY     36   0  21 NW9G18    30.31F
KILL DEVIL HLS SUNNY     36   6  29 NW8G16    30.28F
MANTEO         SUNNY     36   9  32 NW14G22   30.30F
CAPE HATTERAS  SUNNY     37  15  40 N9G16     30.31F
TARBORO*       FAIR      42   6  22 NW9       30.35F
GOLDSBORO      SUNNY     28  16  59 CALM      30.31S
WASHINGTON     SUNNY     40   5  22 N9        30.33F
GREENVILLE     SUNNY     41   7  24 NW5       30.34F
NEW BERN       SUNNY     44   7  21 N7        30.35F
WILMINGTON     SUNNY     46   9  22 N8        30.36F
$$

VAZ048-311900-
ELSEWHERE

CITY           SKY/WX    TMP DP  RH WIND       PRES   REMARKS
HARRISBURG PA  MOSUNNY   22   7  52 NW10      30.26F WCI  11
BALTIMORE      SUNNY     28   4  35 NW15G24   30.28F WCI  16
ANNAPOLIS      SUNNY     27   7  42 NW16G22   30.28F WCI  15
ANDREWS AFB    SUNNY     27   3  35 W13G22    30.28F WCI  17
PHILADELPHIA   SUNNY     26   1  34 NW17      30.23F WCI  13
HENDERSON NC   SUNNY     41   0  17 CALM      30.32F
GREENSBORO     MOSUNNY   43   2  18 VRB3      30.31F
ROCKY MOUNT    SUNNY     43   5  20 NW10      30.34F
$$

VAZ100-311900-
MARINE

STATION/POSITION TIME  TEMP    WIND        PRES    WAVE   SWELL
                       AIR SEA DIR/SP/G            HT/PER HT/PER
                 (UTC) (F)     (DEG/KT/KT) (MB)    (FT/S) (FT/S)
BRANDYWINE LGT   1800   22 35  340/ 22/ 27 1023.3F
CAPE MAY NJ      1800   23 32              1022.8F
LEWES DE         1800   25 32  320/ 21/ 26 1023.6S
15NM E FENWICK I 1800   25 39              1022.2F   7/ 6
OCEAN-CITY-INLET 1800   28 34  340/ 16/ 23 1023.2F
WACHAPREAGUE VA  1800   31 33  320/  7/ 19 1025.3F
THOMAS POINT MD  1800   26 34  300/ 11/ 13 1026.4F
GOOSES REEF MD   1800   28 35  VRB 14/ 19  1024.6F   2/ 3
COVE POINT MD    1800   26     350/ 15/ 18 1025.7F
SOLOMONS ISLAND  1800      36                N/A
BISHOPS HEAD MD  1800   27 31  310/ 20/ 25 1025.2F
PINEY POINT MD   1800          320/ 19/ 22   N/A
POTOMAC MD       1800   28 36  310/ 17/ 23 1025.1F
CAMBRIDGE MD     1800   26 33  300/ 14/ 22 1025.5F
LEWISETTA VA     1800   28 33  320/ 18/ 22 1026.1F
RAPPAHANNOCK LGT 1800          300/ 19/ 22 1026.3F
STINGRAY PT      1800   31 37  310/ 17/ 23 1026.1F   2/ 2
YORK RVR RNG VA  1800   32     310/ 15/ 19 1025.4F
YORKTOWN VA      1800   32 38  320/ 15/ 18 1026.1F
JAMESTOWN VA     1800   31 38  310/ 12/ 16   N/A     0
DOMINION TERM VA 1800   31     310/  9/ 12 1026.3F
KIPTOPEKE VA     1800      39  320/ 17/ 22   N/A
CHES BAY BRIDGE  1800   31 38  260/ 14/ 19 1025.7F
CAPE HENRY VA    1800   31     270/ 13/ 21 1024.7F
CHESAPEAKE LGHT  1700   29     320/ 24/ 27 1026.9F
WILLOUBY STN VA  1800   31     290/ 18/ 19 1026.6F
S CRANEY ISL VA  1800          310/ 10/ 14 1026.4F
CAPE HENRY BUOY  1700      42                N/A     5/ 4
1ST LANDING BUOY 1800   33 39  310/ 19/ 23 1025.5F   3/ 3
CAPE CHARLES BUO 1800      39                N/A     4/ 4   2/ 8
OFFSHORE WE BUOY 1800      43                N/A     7/ 5   3/ 8
64NM E OF VA BCH 1800   31 48  330/ 25/ 29 1023.7F  10/ 8
DUCK PIER NC     1800   32 40  320/ 20/ 24 1025.0F
44100 DUCK FRF   1800      43                N/A     7/ 8   2/11
44056 DUCK FRF   1800      41                N/A     5/ 9   2/11
OREGON INLET NC  1800   33 39  320/ 16/ 21 1025.9F
HATTERAS NC      1800   33 40  340/ 19/ 24 1026.7F


USA.gov is the U.S. government's official web portal to all federal, state and local government web resources and services.